Location: Anumalkud?ru
(16.4847°N, 80.6636°E)
Time: 15:31:19
(UTC+00:00)

COSMOS 2428 - Pass Details

Date: 11 April 2026
Orbit: 843 x 855 km, 70.9° (Epoch: 11 May)

Event Time Altitude Azimuth Distance (km) Brightness Sun altitude
Rises 14:14:48 0° 188° (S) 3,401 5.8 -20.2°
Reaches altitude 10° 14:17:16 10° 185° (S) 2,469 5.0 -20.8°
Maximum altitude 14:22:52 62° 105° (ESE) 951 2.6 -22.1°
Drops below altitude 10° 14:28:28 10° 25° (NNE) 2,479 5.0 -23.4°
Sets 14:30:57 0° 23° (NNE) 3,416 5.8 -23.9°
